WGS F4 (USA 233)

Last updated on Thu Jul 03 2025 00:02:45 GMT+0000 (Coordinated Universal Time)

1 38070U 12003A 25183.58531825 -.00000207 00000+0 00000+0 0 9998 2 38070 0.0181 48.5866 0000721 155.0677 16.3489 1.00269772 40647
UTC large
Height (km)
Speed (km/s)
/
Latitude / Longitude
Inclination (degrees)
Orbital Period (minutes)
Azimuth
Elevation
Range (km)
Doppler Factor

Next 0 passes for location: London (51.5072 / 0.1276)

Sorry there are no passes over London.